IK7IZV Weather Reports


Display with metric or nautical units.
time (UTC)temp
F
wind
direction
speed
MPH
gust
MPH
rain 1hr
in
rain 24hr
in
rain mn
in
humidity
%
barometer
mb
20220519030016 67 241 5.0 12.0 0.00 0.00 0.00 61 1023.9
20220519024531 67 241 5.0 11.0 0.00 0.00 0.00 59 1023.8
20220519023015 67 241 6.0 11.0 0.00 0.00 0.00 58 1023.6
20220519021517 67 241 7.0 12.0 0.00 0.00 0.00 61 1023.5
20220519020018 67 241 6.0 10.0 0.00 0.00 0.00 63 1023.4
20220519014507 67 241 6.0 11.0 0.00 0.00 0.00 62 1023.3
20220519013006 67 241 6.0 10.0 0.00 0.00 0.00 61 1023.2
20220519011505 67 241 7.0 13.0 0.00 0.00 0.00 62 1023.1
20220519010003 68 241 4.0 12.0 0.00 0.00 0.00 62 1023.0
20220519004502 68 241 6.0 13.0 0.00 0.00 0.00 60 1023.0
20220519003001 68 241 5.0 12.0 0.00 0.00 0.00 61 1022.9
20220519001600 67 241 6.0 12.0 0.00 0.00 0.00 66 1022.8
20220519000102 68 241 8.0 13.0 0.00 0.00 0.00 78 1022.8
20220518234556 68 241 11.0 16.0 0.00 0.00 0.00 76 1022.7
20220518233114 68 241 10.0 16.0 0.00 0.00 0.00 77 1022.5
20220518231556 68 241 10.0 0.0 0.00 0.00 0.00 74 1022.4
20220518230056 68 242 13.0 20.0 0.00 0.00 0.00 70 1022.5
20220518224547 69 242 16.0 23.0 0.00 0.00 0.00 69 1022.3
20220518223053 68 242 10.0 21.0 0.00 0.00 0.00 72 1022.2
20220518221544 69 241 17.0 23.0 0.00 0.00 0.00 71 1022.1
20220518220044 69 241 18.0 26.0 0.00 0.00 0.00 70 1022.0
20220518214539 69 240 18.0 26.0 0.00 0.00 0.00 68 1022.0
20220518213038 69 235 17.0 26.0 0.00 0.00 0.00 67 1021.9
20220518211537 70 235 18.0 27.0 0.00 0.00 0.00 66 1021.7
20220518210036 70 235 18.0 27.0 0.00 0.00 0.00 65 1021.6
20220518204532 70 235 15.0 23.0 0.00 0.00 0.00 71 1021.5
20220518203041 70 235 13.0 23.0 0.00 0.00 0.00 72 1021.6
20220518201529 70 235 17.0 23.0 0.00 0.00 0.00 72 1021.4
20220518200027 70 235 14.0 21.0 0.00 0.00 0.00 72 1021.3
20220518194540 69 235 14.0 22.0 0.00 0.00 0.00 73 1021.1
20220518193023 69 235 13.0 18.0 0.00 0.00 0.00 76 1021.0
20220518191522 69 234 10.0 18.0 0.00 0.00 0.00 75 1020.9
20220518190019 70 235 13.0 18.0 0.00 0.00 0.00 74 1020.7
20220518184527 70 236 12.0 17.0 0.00 0.00 0.00 74 1020.5
20220518183017 70 237 13.0 20.0 0.00 0.00 0.00 75 1020.4
20220518181519 70 236 13.0 20.0 0.00 0.00 0.00 75 1020.4
20220518180014 70 237 11.0 18.0 0.00 0.00 0.00 78 1020.4
20220518174512 70 235 12.0 19.0 0.00 0.00 0.00 78 1020.1
20220518173016 70 236 13.0 19.0 0.00 0.00 0.00 78 1019.8
20220518171516 70 236 13.0 19.0 0.00 0.00 0.00 79 1019.7
20220518170012 70 237 15.0 20.0 0.00 0.00 0.00 78 1019.5
20220518164508 70 237 14.0 22.0 0.00 0.00 0.00 78 1019.5
20220518163009 71 237 14.0 22.0 0.00 0.00 0.00 77 1019.4
20220518161506 71 237 17.0 24.0 0.00 0.00 0.00 76 1019.3
20220518160005 71 236 13.0 24.0 0.00 0.00 0.00 73 1019.3
20220518154510 71 236 14.0 29.0 0.00 0.00 0.00 71 1019.1
20220518153006 71 236 20.0 29.0 0.00 0.00 0.00 73 1018.9
20220518151609 71 236 20.0 27.0 0.00 0.00 0.00 70 1019.1
20220518150102 71 236 16.0 25.0 0.00 0.00 0.00 71 1018.9
20220518144600 72 236 17.0 25.0 0.00 0.00 0.00 68 1018.9
20220518143059 73 236 8.0 19.0 0.00 0.00 0.00 69 1018.8
20220518141603 73 236 8.0 16.0 0.00 0.00 0.00 70 1018.9
20220518140059 72 235 11.0 19.0 0.00 0.00 0.00 70 1018.9
20220518134601 71 236 14.0 22.0 0.00 0.00 0.00 73 1019.0
20220518133112 71 235 14.0 26.0 0.00 0.00 0.00 76 1019.1
20220518131556 71 235 11.0 20.0 0.00 0.00 0.00 75 1019.0
20220518130055 72 236 10.0 23.0 0.00 0.00 0.00 73 1019.0
20220518124600 72 236 9.0 19.0 0.00 0.00 0.00 73 1019.1
20220518123057 71 236 13.0 23.0 0.00 0.00 0.00 73 1019.2
20220518121553 72 235 15.0 25.0 0.00 0.00 0.00 71 1019.0
20220518120052 73 236 11.0 18.0 0.00 0.00 0.00 71 1019.1
20220518114552 72 235 12.0 22.0 0.00 0.00 0.00 74 1019.1
20220518113050 72 234 11.0 22.0 0.00 0.00 0.00 75 1019.3
20220518111552 72 234 12.0 19.0 0.00 0.00 0.00 73 1019.2
20220518110049 71 234 16.0 25.0 0.00 0.00 0.00 72 1019.3
20220518104549 72 234 13.0 24.0 0.00 0.00 0.00 72 1019.3
20220518103047 71 234 16.0 25.0 0.00 0.00 0.00 74 1019.4
20220518101550 71 235 15.0 25.0 0.00 0.00 0.00 75 1019.4
20220518100103 71 234 18.0 26.0 0.00 0.00 0.00 73 1019.4
20220518094551 72 235 13.0 24.0 0.00 0.00 0.00 74 1019.4
20220518093044 71 234 14.0 24.0 0.00 0.00 0.00 76 1019.4
20220518091544 72 234 13.0 23.0 0.00 0.00 0.00 77 1019.4
20220518090041 72 234 11.0 20.0 0.00 0.00 0.00 75 1019.2
20220518084540 72 234 12.0 20.0 0.00 0.00 0.00 73 1019.1
20220518083039 72 234 14.0 25.0 0.00 0.00 0.00 72 1019.1
20220518081538 72 234 12.0 21.0 0.00 0.00 0.00 70 1019.0
20220518080043 72 234 13.0 24.0 0.00 0.00 0.00 70 1018.8
20220518074534 72 234 13.0 22.0 0.00 0.00 0.00 70 1018.7
20220518073033 72 234 15.0 24.0 0.00 0.00 0.00 69 1018.7
20220518071531 72 234 11.0 23.0 0.00 0.00 0.00 70 1018.6
20220518070030 71 234 12.0 23.0 0.00 0.00 0.00 70 1018.5
20220518064532 72 234 10.0 21.0 0.00 0.00 0.00 68 1018.4
20220518063026 71 234 8.0 20.0 0.00 0.00 0.00 67 1018.2
20220518061527 71 234 10.0 17.0 0.00 0.00 0.00 69 1018.1
20220518060022 70 234 11.0 18.0 0.00 0.00 0.00 70 1018.0
20220518054518 70 234 6.0 13.0 0.00 0.00 0.00 70 1017.9
20220518053016 69 334 6.0 13.0 0.00 0.00 0.00 72 1017.9
20220518051524 69 334 6.0 11.0 0.00 0.00 0.00 73 1017.9
20220518050013 68 335 8.0 13.0 0.00 0.00 0.00 74 1017.9
20220518044510 68 335 5.0 10.0 0.00 0.00 0.00 75 1017.6
20220518043009 67 335 4.0 10.0 0.00 0.00 0.00 76 1017.5
20220518041511 67 335 6.0 11.0 0.00 0.00 0.00 76 1017.4
20220518040006 67 335 7.0 13.0 0.00 0.00 0.00 76 1017.1
20220518034506 66 335 4.0 8.0 0.00 0.00 0.00 77 1017.0
20220518033006 66 304 2.0 6.0 0.00 0.00 0.00 78 1016.9
20220518031505 66 303 2.0 4.0 0.00 0.00 0.00 79 1016.8